Regional Weather Roundup
Issued by NWS State College, PA

Home | Current Version | Previous Version | Graphics & Text | Print | Product List | Glossary On
Versions: 1 2 3 4 5 6 7 8 9 10 11 12 13 14 15 16 17 18 19 20 21 22 23 24 25 26 27 28 29 30 31 32 33 34 35 36 37 38 39 40 41 42 43 44 45 46 47 48 49 50
000
ASUS41 KCTP 230103
RWRCTP

REGIONAL WEATHER ROUNDUP
NATIONAL WEATHER SERVICE STATE COLLEGE PA
800 PM EST WED FEB 22 2017

Note: "fair" indicates few or no clouds below 12,000 feet with no
significant weather and/or obstructions to visibility.

* = STATION THAT DOES NOT REPORT PRECIPITATION /E.G. RAIN...SNOW...ETC/
    THUNDER OR FOG.

PAZ002>004-007>009-013>016-020>023-029>032-230200-
WESTERN PENNSYLVANIA

CITY           SKY/WX    TMP DP  RH WIND       PRES   REMARKS
ERIE           CLOUDY    59  52  77 S9        29.80F
MEADVILLE      CLOUDY    55  51  86 CALM      29.82S
FRANKLIN*      CLOUDY    55  48  76 SE6       29.84S
NEW CASTLE     CLOUDY    58  53  84 SW5       29.84S
BEAVER COUNTY  NOT AVBL
BUTLER*        CLOUDY    61  46  59 SW5       29.85S
PITTSBURGH INT CLOUDY    61  51  70 SW6       29.84S
PITTSBURGH     CLOUDY    61  48  62 W9        29.84R
INDIANA*       CLOUDY    52  45  76 E5        29.87S
LATROBE        CLOUDY    59  46  63 SW9       29.85S
WASHINGTON CO* CLOUDY    59  48  67 SW6       29.87S
$$

PAZ004>006-010>012-017>019-024>028-033>037-041-042-045-046-049>053-230200-
CENTRAL PENNSYLVANIA

CITY           SKY/WX    TMP DP  RH WIND       PRES   REMARKS
BRADFORD       FOG       46  46 100 CALM      29.84F VSB 1/4
DUBOIS         CLEAR     55  42  61 CALM      29.83F
CLEARFIELD       N/A    N/A N/A N/A MISG      29.85S
JOHNSTOWN      CLOUDY    57  44  62 SE3       29.86S
ALTOONA        CLOUDY    56  41  57 CALM      29.87R
STATE COLLEGE  CLEAR     54  41  62 SW3       29.86S
WILLIAMSPORT   PTCLDY    48  36  63 SE5       29.88S
SELINSGROVE    CLEAR     42  37  82 N3        29.89S
FT INDIANTOWN  CLOUDY    47  42  82 CALM      29.89S
CAPITAL CITY   CLOUDY    54  41  61 SE5       29.89S
HARRISBURG     MOCLDY    51  42  71 SE6       29.89R
YORK           PTCLDY    45  41  86 S3        29.89R
$$

PAZ038>040-043-044-047-048-054-055-060>062-067>071-230200-
EASTERN PENNSYLVANIA

CITY           SKY/WX    TMP DP  RH WIND       PRES   REMARKS
SCRANTON       CLEAR     49  40  71 S3        29.87F
MOUNT POCONO   CLEAR     45  37  73 W5        29.88S
ALLENTOWN      CLOUDY    49  38  65 CALM      29.90S
QUAKERTOWN*    PTCLDY    50  41  71 CALM      29.91S
READING        PTCLDY    54  43  66 S5        29.89S
LANCASTER      CLOUDY    51  43  74 SE5       29.91R
COATESVILLE    CLOUDY    52  43  71 SW3       29.93R
POTTSTOWN      CLEAR     49  40  71 S3        29.92S
BLUE BELL      CLOUDY    45  41  87 CALM      29.91R
DOYLESTOWN     CLEAR     51  42  71 S3        29.91R
WILLOW GROVE   NOT AVBL
NORTH PHILA    CLOUDY    52  43  71 CALM      29.94R
PHILADELPHIA   CLOUDY    52  44  74 S6        29.93R
$$




USA.gov is the U.S. government's official web portal to all federal, state and local government web resources and services.